Rochelle, IL

6:06 AM CST on February 10, 2016 (GMT -0600)
Rochelle

Weather History for KRPJ - January, 2013

Change the Weather History Date:

Tuesday, January 8, 2013

  Actual Average (KRFD) Record (KRFD)
Temperature  
Mean Temperature 32 °F 21 °F  
Max Temperature 44 °F 29 °F 55 °F (1965)
Min Temperature 21 °F 13 °F -19 °F (1986)
Degree Days  
Heating Degree Days 32 44  
Month to date heating degree days 346  
Since 1 July heating degree days 2907  
Cooling Degree Days 0 0  
Month to date cooling degree days 0  
Year to date cooling degree days 0  
Moisture  
Dew Point 28 °F    
Average Humidity 81    
Maximum Humidity 96    
Minimum Humidity 57    
Precipitation  
Precipitation 0.00 in 0.05 in 1.25 in (1946)
Month to date precipitation 0.39  
Year to date precipitation 0.39  
Snow  
Snow 0.00 in 0.30 in 3.20 in (1974)
Month to date snowfall 2.7  
Since 1 July snowfall 15.8  
Snow Depth -    
Sea Level Pressure  
Sea Level Pressure 30.07 in    
Wind  
Wind Speed 10 mph (South)    
Max Wind Speed 21 mph    
Max Gust Speed 25 mph    
Visibility 8 miles    
Events      
T = Trace of Precipitation, MM = Missing Value Source: NWS Daily Summary

Daily Weather History Graph

Daily Weather History Graph

Search for Another Location

Airport or City:

Trip Planner

Search our weather history database for the weather conditions in past years. The results will help you decide how hot, cold, wet, or windy it might be!

Date:

Astronomy

Jan. 08, 2013 Rise Set
Actual Time 7:23 AM CST 4:42 PM CST
Civil Twilight 6:52 AM CST 5:14 PM CST
Nautical Twilight 6:17 AM CST 5:48 PM CST
Astronomical Twilight 5:44 AM CST 6:22 PM CST
Moon 3:56 AM CST (1/8) 1:45 PM CST (1/8)
Length of Visible Light 10h 21m
Length of Day
9h 19m
Waning Crescent, 13% of the Moon is Illuminated
Jan 8
Waning Crescent
Jan 11
New
Jan 18
First Quarter
Jan 26
Full
Feb 3
Last Quarter

Hourly Weather History & Observations

Time (CST) Temp. Windchill Dew Point Humidity Pressure Visibility Wind Dir Wind Speed Gust Speed Precip Events Conditions
12:35 AM 28.4 °F 19.1 °F 26.1 °F 91% 30.08 in 5.0 mi SSW 10.4 mph - N/A   Clear
12:55 AM 28.4 °F 19.7 °F 25.9 °F 90% 30.08 in 5.0 mi SSW 9.2 mph - N/A   Clear
1:15 AM 28.2 °F 18.9 °F 25.7 °F 90% 30.09 in 5.0 mi South 10.4 mph - N/A   Clear
1:35 AM 28.4 °F 18.5 °F 26.1 °F 91% 30.09 in 5.0 mi SSW 11.5 mph - N/A   Clear
1:55 AM 28.2 °F 18.9 °F 25.7 °F 90% 30.09 in 5.0 mi SSW 10.4 mph - N/A   Clear
2:15 AM 28.2 °F 19.5 °F 25.7 °F 90% 30.09 in 5.0 mi SSW 9.2 mph - N/A   Clear
2:35 AM 27.5 °F 19.3 °F 25.3 °F 92% 30.09 in 5.0 mi SSW 8.1 mph - N/A   Clear
2:55 AM 27.3 °F 23.4 °F 25.0 °F 91% 30.09 in 5.0 mi South 3.5 mph - N/A   Clear
3:15 AM 26.4 °F 22.4 °F 24.4 °F 92% 30.09 in 5.0 mi South 3.5 mph - N/A   Clear
3:35 AM 25.0 °F 18.1 °F 23.2 °F 93% 30.09 in 5.0 mi South 5.8 mph - N/A   Clear
3:55 AM 23.9 °F 18.0 °F 22.6 °F 95% 30.09 in 5.0 mi South 4.6 mph - N/A   Clear
4:15 AM 23.7 °F 15.6 °F 22.1 °F 94% 30.08 in 5.0 mi South 6.9 mph - N/A   Clear
4:35 AM 24.6 °F 14.4 °F 23.2 °F 94% 30.08 in 5.0 mi South 10.4 mph - N/A   Clear
4:55 AM 25.7 °F 17.1 °F 23.5 °F 92% 30.09 in 5.0 mi South 8.1 mph - N/A   Clear
5:15 AM 24.3 °F 19.9 °F 22.3 °F 92% 30.09 in 7.0 mi SSE 3.5 mph - N/A   Clear
5:35 AM 24.6 °F 16.7 °F 22.6 °F 92% 30.09 in 7.0 mi SSE 6.9 mph - N/A   Clear
5:55 AM 23.0 °F 18.4 °F 21.2 °F 93% 30.09 in 5.0 mi SE 3.5 mph - N/A   Clear
6:15 AM 22.1 °F 15.9 °F 20.5 °F 93% 30.10 in 5.0 mi SE 4.6 mph - N/A   Clear
6:35 AM 21.9 °F 17.2 °F 20.8 °F 96% 30.10 in 5.0 mi SE 3.5 mph - N/A   Clear
6:55 AM 22.6 °F 16.5 °F 21.2 °F 94% 30.11 in 5.0 mi SSE 4.6 mph - N/A   Clear
7:15 AM 21.4 °F 11.9 °F 20.3 °F 96% 30.11 in 5.0 mi SSE 8.1 mph - N/A   Clear
7:35 AM 21.2 °F 11.7 °F 19.9 °F 95% 30.12 in 4.0 mi South 8.1 mph - N/A   Clear
7:55 AM 22.8 °F 13.6 °F 21.2 °F 93% 30.12 in 4.0 mi South 8.1 mph - N/A   Clear
8:15 AM 25.3 °F 16.7 °F 23.7 °F 94% 30.12 in 4.0 mi SSE 8.1 mph - N/A   Clear
8:35 AM 27.3 °F 22.0 °F 25.3 °F 92% 30.12 in 5.0 mi SSE 4.6 mph - N/A   Clear
8:55 AM 29.8 °F 23.9 °F 26.6 °F 88% 30.13 in 5.0 mi SSE 5.8 mph - N/A   Clear
9:15 AM 30.7 °F 24.9 °F 27.5 °F 88% 30.13 in 5.0 mi SSE 5.8 mph - N/A   Clear
9:35 AM 31.6 °F 28.3 °F 28.0 °F 87% 30.13 in 5.0 mi SSE 3.5 mph - N/A   Clear
9:55 AM 32.5 °F 28.1 °F 29.1 °F 87% 30.13 in 7.0 mi SSE 4.6 mph - N/A   Clear
10:15 AM 34.9 °F 27.7 °F 28.9 °F 79% 30.13 in 10.0 mi South 9.2 mph - N/A   Clear
10:35 AM 35.6 °F 28.6 °F 28.8 °F 76% 30.13 in 10.0 mi South 9.2 mph - N/A   Clear
10:55 AM 36.0 °F 29.0 °F 28.4 °F 74% 30.12 in 10.0 mi South 9.2 mph - N/A   Clear
11:15 AM 36.3 °F 29.5 °F 28.6 °F 74% 30.11 in 10.0 mi South 9.2 mph - N/A   Clear
11:55 AM 37.0 °F 30.4 °F 29.1 °F 73% 30.09 in 10.0 mi SSE 9.2 mph - N/A   Clear
12:35 PM 38.3 °F 31.4 °F 29.8 °F 72% 30.08 in 10.0 mi South 10.4 mph - N/A   Clear
12:55 PM 39.4 °F 32.3 °F 30.0 °F 69% 30.07 in 10.0 mi SSE 11.5 mph - N/A   Clear
1:15 PM 40.3 °F 33.0 °F 29.7 °F 66% 30.07 in 10.0 mi South 12.7 mph - N/A   Clear
1:55 PM 42.8 °F 36.6 °F 30.0 °F 61% 30.05 in 10.0 mi South 11.5 mph - N/A   Clear
2:15 PM 44.2 °F 37.0 °F 29.8 °F 57% 30.05 in 10.0 mi South 16.1 mph - N/A   Clear
2:35 PM 44.1 °F 36.5 °F 29.7 °F 57% 30.06 in 10.0 mi South 17.3 mph - N/A   Clear
2:55 PM 44.1 °F 37.1 °F 30.2 °F 58% 30.06 in 10.0 mi South 15.0 mph - N/A   Clear
3:15 PM 43.9 °F 36.8 °F 29.8 °F 58% 30.04 in 10.0 mi South 15.0 mph - N/A   Clear
3:35 PM 42.3 °F 35.1 °F 30.0 °F 62% 30.04 in 10.0 mi South 13.8 mph - N/A   Clear
3:55 PM 42.1 °F 35.7 °F 30.7 °F 64% 30.03 in 10.0 mi SSE 11.5 mph - N/A   Clear
4:15 PM 41.9 °F 35.0 °F 30.7 °F 65% 30.03 in 10.0 mi South 12.7 mph - N/A   Clear
4:35 PM 40.6 °F 32.7 °F 29.8 °F 65% 30.02 in 10.0 mi South 15.0 mph - N/A   Clear
4:55 PM 39.0 °F 31.4 °F 29.8 °F 70% 30.03 in 10.0 mi South 12.7 mph - N/A   Clear
5:15 PM 36.5 °F 29.2 °F 29.1 °F 75% 30.03 in 10.0 mi South 10.4 mph - N/A   Clear
5:35 PM 36.7 °F 28.0 °F 29.8 °F 76% 30.03 in 10.0 mi South 13.8 mph - N/A   Clear
5:55 PM 36.5 °F 27.4 °F 30.0 °F 77% 30.03 in 10.0 mi South 15.0 mph - N/A   Clear
6:15 PM 36.5 °F 26.7 °F 30.9 °F 80% 30.02 in 10.0 mi South 17.3 mph - N/A   Clear
6:35 PM 36.5 °F 26.3 °F 31.5 °F 82% 30.02 in 10.0 mi South 18.4 mph - N/A   Scattered Clouds
6:55 PM 36.1 °F 26.5 °F 31.6 °F 84% 30.02 in 10.0 mi SSE 16.1 mph - N/A   Mostly Cloudy
7:15 PM 36.0 °F 26.0 °F 31.5 °F 84% 30.02 in 10.0 mi SSE 17.3 mph - N/A   Mostly Cloudy
7:35 PM 35.6 °F 25.2 °F 31.3 °F 84% 30.02 in 10.0 mi South 18.4 mph - N/A   Mostly Cloudy
7:55 PM 35.6 °F 25.9 °F 31.5 °F 85% 30.03 in 10.0 mi South 16.1 mph - N/A   Mostly Cloudy
8:15 PM 35.8 °F 25.7 °F 31.6 °F 85% 30.03 in 10.0 mi South 17.3 mph - N/A   Overcast
8:35 PM 36.3 °F 26.1 °F 31.1 °F 81% 30.03 in 10.0 mi South 18.4 mph 25.3 mph N/A   Mostly Cloudy
8:55 PM 36.0 °F 26.3 °F 30.9 °F 82% 30.03 in 10.0 mi South 16.1 mph - N/A   Scattered Clouds
9:15 PM 36.1 °F 26.9 °F 30.4 °F 80% 30.03 in 10.0 mi South 15.0 mph - N/A   Scattered Clouds
9:35 PM 36.5 °F 27.0 °F 30.2 °F 78% 30.03 in 10.0 mi South 16.1 mph - N/A   Scattered Clouds
9:55 PM 36.5 °F 27.0 °F 30.0 °F 77% 30.02 in 10.0 mi South 16.1 mph - N/A   Scattered Clouds
10:15 PM 37.2 °F 27.9 °F 30.2 °F 76% 30.01 in 10.0 mi South 16.1 mph - N/A   Mostly Cloudy
10:35 PM 37.9 °F 27.9 °F 30.2 °F 74% 30.01 in 10.0 mi South 19.6 mph - N/A   Overcast
10:55 PM 37.9 °F 27.6 °F 30.2 °F 74% 30.01 in 10.0 mi SSW 20.7 mph 25.3 mph N/A   Overcast
11:15 PM 37.9 °F 27.9 °F 30.2 °F 74% 30.00 in 10.0 mi South 19.6 mph - N/A   Overcast
11:35 PM 37.4 °F 27.8 °F 30.6 °F 76% 30.01 in 10.0 mi SSW 17.3 mph - N/A   Mostly Cloudy
11:55 PM 36.7 °F 27.6 °F 30.2 °F 77% 30.00 in 10.0 mi SSW 15.0 mph - N/A   Clear